Whiting Fld NAS, FL

9:32 AM CST on November 20, 2019 (GMT -0600)
Whiting Field Naval Air Station (North)

Weather History for KNSE - September, 2019

Change the Weather History Date:

Monday, September 16, 2019

  Actual Average Record
Temperature  
Mean Temperature 82 °F -  
Max Temperature 97 °F 84 °F 97 °F (2019)
Min Temperature 72 °F 67 °F 61 °F (2007)
Cooling Degree Days 18    
Growing Degree Days 32 (Base 50)    
Moisture  
Dew Point 71 °F    
Average Humidity 70    
Maximum Humidity 87    
Minimum Humidity 40    
Precipitation  
Precipitation 0.00 in - - ()
Sea Level Pressure  
Sea Level Pressure 29.97 in    
Wind  
Wind Speed 4 mph (NW)    
Max Wind Speed 13 mph    
Max Gust Speed -    
Visibility 10 miles    
Events      
Averages and records for this station are not official NWS values.
T = Trace of Precipitation, MM = Missing Value Source: NWS Daily Summary

Daily Weather History Graph

Daily Weather History Graph

Search for Another Location

Airport or City:

Astronomy

Sep. 16, 2019 Rise Set
Actual Time 6:32 AM CDT 6:52 PM CDT
Civil Twilight 6:08 AM CDT 7:16 PM CDT
Nautical Twilight 5:40 AM CDT 7:44 PM CDT
Astronomical Twilight 5:11 AM CDT 8:13 PM CDT
Moon 8:35 PM CDT (9/16) 8:33 AM CDT (9/16)
Length of Visible Light 13h 07m
Length of Day
12h 19m
Waning Gibbous, 94% of the Moon is Illuminated
Sep 16
Waning Gibbous
Sep 21
Last Quarter
Sep 28
New
Oct 5
First Quarter
Oct 13
Full

Hourly Weather History & Observations

Time (CDT) Temp. Heat Index Dew Point Humidity Pressure Visibility Wind Dir Wind Speed Gust Speed Precip Events Conditions
1:56 AM 73.0 °F - - N/A% 29.96 in 10.0 mi North 4.6 mph - N/A   Clear
2:56 AM 73.0 °F - - N/A% 29.96 in 10.0 mi North 4.6 mph - N/A   Clear
3:56 AM 73.0 °F - - N/A% 29.96 in 10.0 mi North 4.6 mph - N/A   Clear
4:56 AM 72.0 °F - - N/A% 29.97 in 10.0 mi North 4.6 mph - N/A   Clear
5:56 AM 72.0 °F - 68.0 °F 87% 29.99 in 10.0 mi Variable 3.5 mph - N/A   Mostly Cloudy
6:56 AM 73.0 °F - 68.0 °F 84% 30.00 in 10.0 mi NE 3.5 mph - N/A   Mostly Cloudy
7:56 AM 75.0 °F - 68.0 °F 79% 30.01 in 10.0 mi NE 3.5 mph - N/A   Mostly Cloudy
8:56 AM 81.0 °F 84.4 °F 70.0 °F 69% 30.02 in 10.0 mi Variable 3.5 mph - N/A   Mostly Cloudy
9:56 AM 86.0 °F 90.7 °F 70.0 °F 59% 30.03 in 10.0 mi Variable 3.5 mph - N/A   Mostly Cloudy
10:56 AM 90.0 °F 95.4 °F 70.0 °F 52% 30.02 in 10.0 mi Variable 5.8 mph - N/A   Mostly Cloudy
11:56 AM 91.9 °F 95.4 °F 66.9 °F 44% 30.01 in 10.0 mi East 8.1 mph - N/A   Mostly Cloudy
12:56 PM 93.9 °F 97.0 °F 66.0 °F 40% 29.99 in 10.0 mi Calm Calm - N/A   Mostly Cloudy
1:56 PM 93.0 °F 95.9 °F 66.0 °F 41% 29.97 in 10.0 mi Variable 3.5 mph - N/A   Mostly Cloudy
2:56 PM 90.0 °F 99.0 °F 73.9 °F 59% 29.96 in 10.0 mi South 12.7 mph - N/A   Mostly Cloudy
3:56 PM 86.0 °F 95.1 °F 75.0 °F 70% 29.94 in 10.0 mi SSW 11.5 mph - N/A   Mostly Cloudy
4:56 PM 86.0 °F 93.8 °F 73.9 °F 67% 29.94 in 10.0 mi Calm Calm - N/A   Mostly Cloudy
5:56 PM 84.9 °F 92.1 °F 73.9 °F 69% 29.94 in 10.0 mi SSW 3.5 mph - N/A   Scattered Clouds
6:56 PM 82.9 °F 87.5 °F 71.1 °F 67% 29.94 in 10.0 mi SSW 3.5 mph - N/A   Mostly Cloudy
7:56 PM 79.0 °F - 73.0 °F 82% 29.93 in 10.0 mi Calm Calm - N/A   Mostly Cloudy
8:56 PM 78.1 °F - 73.9 °F 87% 29.94 in 10.0 mi Calm Calm - N/A   Mostly Cloudy
9:56 PM 78.1 °F - 73.9 °F 87% 29.95 in 10.0 mi West 4.6 mph - N/A   Mostly Cloudy
10:45 PM 78.1 °F - 73.9 °F 87% 30.00 in 10.0 mi West 3.5 mph - N/A   Mostly Cloudy
10:56 PM 78.1 °F - 73.9 °F 87% 29.96 in 10.0 mi West 4.6 mph - N/A   Clear
11:56 PM 78.1 °F - 73.9 °F 87% 29.95 in 10.0 mi WNW 4.6 mph - N/A   Clear